{"data":{"norad_id":82139,"epoch":"2026-09-18T10:25:11.108640Z","epoch_age_seconds":192966,"freshness":"STALE","line1":"1 82139U          26261.43415635  .00001374  00000+0  68916-3 0  9998","line2":"2 82139  99.0063 337.6489 0079802 329.2338  30.4170 14.16673798519707","mean_motion":14.16673798,"eccentricity":0.0079802,"inclination_deg":99.0063,"raan_deg":337.6489,"arg_perigee_deg":329.2338,"mean_anomaly_deg":30.417,"bstar":0.00068916,"rev_number":51970,"period_min":101.64654714677,"perigee_km":779.04851129158,"apogee_km":894.1989786859,"semimajor_km":7214.7607449887,"source":"CELESTRAK","updated_at":"2026-09-20T09:00:32.430262Z"}}